Location: Hamilton
(37.7830°S, 175.2830°E)
Time: 16:07:41
(UTC+12:00)

Cosmos 2237 - Pass Details

Date: 24 January 2019
Orbit: 846 x 856 km, 70.8° (Epoch: 20 April)

Event Time Altitude Azimuth Distance (km) Brightness Sun altitude
Exits shadow 22:25:22 23° 7° (N) 1,757 5.4 -18.2°
Maximum altitude 22:28:47 51° 73° (ENE) 1,071 4.4 -18.7°
Drops below altitude 10° 22:34:21 10° 147° (SSE) 2,508 6.8 -19.5°
Sets 22:36:53 0° 152° (SSE) 3,449 7.6 -19.8°
